Location: Kergonan
(48.2337°N, 4.5518°W)
Time: 17:21:55
(UTC+00:00)

Cosmos 2263 Rocket - Pass Details

Date: 18 January 2020
Orbit: 823 x 849 km, 71.0° (Epoch: 19 February)

Event Time Altitude Azimuth Distance (km) Brightness Sun altitude
Exits shadow 06:20:38 - 337° (NNW) 2,575 4.4 -16.5°
Reaches altitude 10° 06:20:57 10° 337° (NNW) 2,458 4.3 -16.4°
Maximum altitude 06:26:33 63° 58° (ENE) 940 2.6 -15.5°
Drops below altitude 10° 06:32:09 10° 140° (SE) 2,460 5.5 -14.6°
Sets 06:34:37 0° 143° (SE) 3,394 6.2 -14.2°
